Columbus, OH

6:17 AM EST on February 10, 2016 (GMT -0500)
Port Columbus International

Weather History for KCMH - May, 2013

Change the Weather History Date:

Thursday, May 23, 2013

  Actual Average Record
Temperature  
Mean Temperature 63 °F 65 °F  
Max Temperature 76 °F 75 °F 90 °F (1939)
Min Temperature 49 °F 54 °F 34 °F (1963)
Degree Days  
Heating Degree Days 2 3  
Month to date heating degree days 60 124  
Since 1 July heating degree days 5117 5206  
Cooling Degree Days 0 3  
Month to date cooling degree days 87 41  
Year to date cooling degree days 110 53  
Growing Degree Days 13 (Base 50)    
Moisture  
Dew Point 58 °F    
Average Humidity 75    
Maximum Humidity 100    
Minimum Humidity 49    
Precipitation  
Precipitation 0.02 in 0.14 in 1.92 in (1968)
Month to date precipitation 1.42 3.01  
Year to date precipitation 12.27 14.41  
Snow  
Snow 0.00 in 0.00 in - ()
Month to date snowfall 0.0 0.0  
Since 1 July snowfall 41.2 26.7  
Snow Depth 0.00 in    
Sea Level Pressure  
Sea Level Pressure 29.86 in    
Wind  
Wind Speed 13 mph (WSW)    
Max Wind Speed 26 mph    
Max Gust Speed 32 mph    
Visibility 9 miles    
Events Rain    
T = Trace of Precipitation, MM = Missing Value Source: NWS Daily Summary

Daily Weather History Graph

Daily Weather History Graph

Search for Another Location

Airport or City:

Trip Planner

Search our weather history database for the weather conditions in past years. The results will help you decide how hot, cold, wet, or windy it might be!

Date:

Astronomy

May. 23, 2013 Rise Set
Actual Time 6:09 AM EDT 8:47 PM EDT
Civil Twilight 5:38 AM EDT 9:18 PM EDT
Nautical Twilight 4:59 AM EDT 9:58 PM EDT
Astronomical Twilight 4:14 AM EDT 10:42 PM EDT
Moon 7:18 PM EDT (5/23) 4:53 AM EDT (5/23)
Length of Visible Light 15h 40m
Length of Day
14h 37m
Waxing Gibbous, 97% of the Moon is Illuminated
May 23
Waxing Gibbous
May 25
Full
May 31
Last Quarter
Jun 8
New
Jun 16
First Quarter

Hourly Weather History & Observations

Time (EDT) Temp. Dew Point Humidity Pressure Visibility Wind Dir Wind Speed Gust Speed Precip Events Conditions
12:51 AM 66.0 °F 64.0 °F 93% 29.78 in 10.0 mi SSW 9.2 mph - N/A   Mostly Cloudy
1:17 AM 66.2 °F 64.4 °F 94% 29.80 in 10.0 mi SSW 8.1 mph - N/A   Overcast
1:38 AM 66.2 °F 64.4 °F 94% 29.80 in 10.0 mi SSW 6.9 mph - N/A   Overcast
1:51 AM 66.0 °F 64.0 °F 93% 29.79 in 10.0 mi SSW 8.1 mph - N/A   Overcast
2:51 AM 66.0 °F 64.0 °F 93% 29.79 in 8.0 mi SW 9.2 mph - N/A   Overcast
3:00 AM 66.2 °F 64.4 °F 94% 29.81 in 10.0 mi SW 12.7 mph - N/A   Overcast
3:17 AM 66.2 °F 62.6 °F 88% 29.80 in 8.0 mi WSW 9.2 mph - N/A   Mostly Cloudy
3:51 AM 66.0 °F 63.0 °F 90% 29.78 in 9.0 mi SW 4.6 mph - N/A   Mostly Cloudy
4:51 AM 64.9 °F 60.1 °F 84% 29.78 in 10.0 mi SW 5.8 mph - 0.00 in   Overcast
5:51 AM 64.0 °F 60.1 °F 87% 29.80 in 10.0 mi SSW 3.5 mph - N/A   Scattered Clouds
6:41 AM 64.4 °F 60.8 °F 88% 29.82 in 7.0 mi SW 10.4 mph - 0.00 in Rain Light Rain
6:51 AM 64.9 °F 61.0 °F 87% 29.81 in 6.0 mi SW 8.1 mph - 0.00 in Rain Light Rain
7:51 AM 64.9 °F 62.1 °F 90% 29.82 in 6.0 mi SSW 4.6 mph - 0.00 in   Overcast
7:58 AM 64.4 °F 62.6 °F 94% 29.84 in 6.0 mi SSW 4.6 mph - N/A   Overcast
8:39 AM 66.2 °F 62.6 °F 88% 29.84 in 6.0 mi SW 8.1 mph - N/A   Overcast
8:51 AM 66.0 °F 63.0 °F 90% 29.83 in 6.0 mi SW 6.9 mph - N/A   Overcast
9:51 AM 66.9 °F 62.1 °F 84% 29.84 in 9.0 mi SW 9.2 mph - 0.00 in   Overcast
10:25 AM 68.0 °F 60.8 °F 78% 29.85 in 10.0 mi SW 9.2 mph - N/A   Overcast
10:51 AM 69.1 °F 61.0 °F 75% 29.84 in 10.0 mi SW 9.2 mph - N/A   Overcast
11:51 AM 72.0 °F 57.9 °F 61% 29.83 in 10.0 mi SW 19.6 mph 25.3 mph N/A   Mostly Cloudy
12:51 PM 73.0 °F 55.0 °F 53% 29.82 in 10.0 mi WSW 17.3 mph 25.3 mph N/A   Scattered Clouds
1:51 PM 73.9 °F 55.0 °F 52% 29.81 in 10.0 mi WSW 18.4 mph 24.2 mph N/A   Scattered Clouds
2:51 PM 75.0 °F 55.0 °F 50% 29.80 in 10.0 mi WSW 18.4 mph - N/A   Scattered Clouds
3:51 PM 73.0 °F 54.0 °F 51% 29.81 in 10.0 mi West 21.9 mph - N/A   Mostly Cloudy
4:51 PM 72.0 °F 55.0 °F 55% 29.83 in 10.0 mi West 21.9 mph 26.5 mph N/A   Mostly Cloudy
5:51 PM 64.9 °F 55.0 °F 70% 29.86 in 10.0 mi WNW 15.0 mph 24.2 mph 0.00 in Rain Light Rain
6:51 PM 63.0 °F 57.9 °F 84% 29.87 in 10.0 mi West 12.7 mph 19.6 mph 0.00 in Rain Light Rain
7:03 PM 62.6 °F 59.0 °F 88% 29.88 in 10.0 mi NW 9.2 mph - 0.00 in Rain Light Rain
7:33 PM 59.0 °F 57.2 °F 94% 29.91 in 9.0 mi NNW 19.6 mph 25.3 mph 0.02 in Rain Light Rain
7:51 PM 57.9 °F 55.9 °F 93% 29.92 in 7.0 mi North 20.7 mph 27.6 mph 0.02 in Rain Light Rain
8:46 PM 53.6 °F 51.8 °F 94% 29.96 in 10.0 mi North 13.8 mph 25.3 mph 0.00 in   Overcast
8:51 PM 54.0 °F 51.1 °F 90% 29.96 in 10.0 mi North 12.7 mph - 0.00 in   Overcast
9:43 PM 51.8 °F 51.8 °F 100% 29.99 in 10.0 mi North 13.8 mph 27.6 mph N/A   Overcast
9:51 PM 52.0 °F 51.1 °F 97% 29.99 in 10.0 mi North 15.0 mph - N/A   Overcast
10:25 PM 51.8 °F 46.4 °F 82% 30.02 in 10.0 mi North 17.3 mph 28.8 mph N/A   Overcast
10:48 PM 51.8 °F 46.4 °F 82% 30.03 in 10.0 mi North 16.1 mph - N/A   Overcast
10:51 PM 51.1 °F 46.9 °F 86% 30.02 in 10.0 mi North 12.7 mph - N/A   Overcast
11:51 PM 51.1 °F 46.0 °F 83% 30.04 in 10.0 mi North 18.4 mph 31.1 mph 0.00 in   Overcast